Weather History for Trenton, NJ

Change the Weather History Date:

Wednesday, April 16, 2014

  Actual Average Record
Temperature  
Mean Temperature 39 °F 51 °F  
Max Temperature 48 °F 62 °F 91 °F (2012)
Min Temperature 30 °F 41 °F 28 °F (1943)
Degree Days  
Heating Degree Days 26 14  
Month to date heating degree days 210 259  
Since 1 July heating degree days 5169 4805  
Cooling Degree Days 0 0  
Month to date cooling degree days 6 0  
Year to date cooling degree days 6 0  
Moisture  
Dew Point 18 °F    
Average Humidity 53    
Maximum Humidity 75    
Minimum Humidity 30    
Precipitation  
Precipitation 0.00 in 0.11 in 4.10 in (1986)
Month to date precipitation 1.40 2.08  
Year to date precipitation 12.39 11.69  
Sea Level Pressure  
Sea Level Pressure 30.29 in    
Wind  
Wind Speed 13 mph (NNW)    
Max Wind Speed 26 mph    
Max Gust Speed 37 mph    
Visibility 10 miles    
Events Snow    
T = Trace of Precipitation, MM = Missing Value Source: NWS Daily Summary

Daily Weather History Graph

Daily Weather History Graph

Search for Another Location

Airport:

Trip Planner

Search our weather history database for the weather conditions in past years. The results will help you decide how hot, cold, wet, or windy it might be!

Date:

Astronomy

Apr. 16, 2014 Rise Set
Actual Time 6:19 AM EDT 7:39 PM EDT
Civil Twilight 5:51 AM EDT 8:07 PM EDT
Nautical Twilight 5:17 AM EDT 8:41 PM EDT
Astronomical Twilight 4:42 AM EDT 9:17 PM EDT
Moon 9:20 PM EDT (4/16) 7:05 AM EDT (4/16)
Length of Visible Light 14h 16m
Length of Day
13h 19m
Full, 98% of the Moon is Illuminated
Apr 16
Full
Apr 22
Last Quarter
Apr 29
New
May 6
First Quarter
May 14
Full

Hourly Weather History & Observations

Time (EDT) Temp. Windchill Dew Point Humidity Pressure Visibility Wind Dir Wind Speed Gust Speed Precip Events Conditions
12:04 AM 35.1 °F 25.9 °F 32.0 °F 89% 29.95 in 8.0 mi NW 13.8 mph 21.9 mph 0.00 in Snow Light Snow
12:53 AM 36.0 °F 28.0 °F 28.0 °F 73% 29.93 in 10.0 mi NNW 11.5 mph 25.3 mph 0.01 in   Overcast
1:53 AM 36.0 °F 26.0 °F 26.1 °F 67% 29.96 in 10.0 mi NNW 17.3 mph 29.9 mph N/A   Overcast
2:53 AM 35.1 °F 23.3 °F 19.0 °F 52% 29.99 in 10.0 mi NNW 23.0 mph 32.2 mph N/A   Clear
3:53 AM 33.1 °F 22.2 °F 19.0 °F 56% 30.07 in 10.0 mi NNW 17.3 mph 33.4 mph N/A   Clear
4:53 AM 30.9 °F 19.1 °F 14.0 °F 50% 30.10 in 10.0 mi NNW 18.4 mph 32.2 mph N/A   Clear
5:53 AM 30.9 °F 20.2 °F 14.0 °F 50% 30.17 in 10.0 mi North 15.0 mph 31.1 mph N/A   Clear
6:53 AM 30.0 °F 18.7 °F 15.1 °F 54% 30.22 in 10.0 mi NNW 16.1 mph 25.3 mph N/A   Clear
7:53 AM 30.9 °F 19.4 °F 14.0 °F 50% 30.26 in 10.0 mi NW 17.3 mph 27.6 mph N/A   Clear
8:53 AM 32.0 °F 19.5 °F 14.0 °F 48% 30.29 in 10.0 mi NNW 21.9 mph 31.1 mph N/A   Clear
9:53 AM 35.1 °F 25.9 °F 15.1 °F 44% 30.32 in 10.0 mi North 13.8 mph 27.6 mph N/A   Clear
10:53 AM 37.0 °F 27.7 °F 16.0 °F 42% 30.36 in 10.0 mi NNW 16.1 mph 28.8 mph N/A   Clear
11:53 AM 39.0 °F 30.3 °F 17.1 °F 41% 30.39 in 10.0 mi NW 16.1 mph 23.0 mph N/A   Clear
12:53 PM 42.1 °F 34.9 °F 19.0 °F 40% 30.40 in 10.0 mi NNW 13.8 mph 27.6 mph N/A   Clear
2:53 PM 45.0 °F 38.9 °F 17.1 °F 33% 30.41 in 10.0 mi North 12.7 mph 24.2 mph N/A   Clear
3:53 PM 46.0 °F 39.6 °F 19.0 °F 34% 30.40 in 10.0 mi NNW 15.0 mph 25.3 mph N/A   Clear
4:53 PM 46.0 °F 41.4 °F 18.0 °F 33% 30.41 in 10.0 mi NW 9.2 mph 21.9 mph N/A   Clear
5:53 PM 46.0 °F 40.2 °F 17.1 °F 31% 30.42 in 10.0 mi NNW 12.7 mph 23.0 mph N/A   Clear
6:53 PM 45.0 °F 40.6 °F 15.1 °F 30% 30.43 in 10.0 mi North 8.1 mph - N/A   Clear
7:53 PM 43.0 °F 39.5 °F 14.0 °F 31% 30.45 in 10.0 mi NNE 5.8 mph - N/A   Clear
8:53 PM 41.0 °F 38.0 °F 16.0 °F 36% 30.49 in 10.0 mi North 4.6 mph - N/A   Clear
9:53 PM 39.0 °F 34.8 °F 17.1 °F 41% 30.51 in 10.0 mi North 5.8 mph - N/A   Clear
10:53 PM 37.9 °F 34.4 °F 17.1 °F 43% 30.52 in 10.0 mi NNW 4.6 mph - N/A   Clear
11:53 PM 36.0 °F 32.1 °F 18.0 °F 48% 30.54 in 10.0 mi North 4.6 mph - N/A   Clear